Weather History for Key West NAF, FL

Change the Weather History Date:

Saturday, February 23, 2013

  Actual Average Record
Temperature  
Mean Temperature 78 °F -  
Max Temperature 82 °F 76 °F 88 °F (1997)
Min Temperature 73 °F 67 °F 48 °F (1978)
Cooling Degree Days 12    
Growing Degree Days 28 (Base 50)    
Moisture  
Dew Point 72 °F    
Average Humidity 83    
Maximum Humidity 94    
Minimum Humidity 71    
Precipitation  
Precipitation 0.00 in - - ()
Sea Level Pressure  
Sea Level Pressure 29.98 in    
Wind  
Wind Speed 9 mph (SE)    
Max Wind Speed 13 mph    
Max Gust Speed -    
Visibility 10 miles    
Events      
Averages and records for this station are not official NWS values.
T = Trace of Precipitation, MM = Missing Value Source: NWS Daily Summary

Daily Weather History Graph

Daily Weather History Graph

Search for Another Location

Airport:

Trip Planner

Search our weather history database for the weather conditions in past years. The results will help you decide how hot, cold, wet, or windy it might be!

Date:

Astronomy

Feb. 23, 2013 Rise Set
Actual Time 6:54 AM EST 6:26 PM EST
Civil Twilight 6:31 AM EST 6:49 PM EST
Nautical Twilight 6:04 AM EST 7:15 PM EST
Astronomical Twilight 5:38 AM EST 7:42 PM EST
Moon 4:41 PM EST (2/23) 5:07 AM EST (2/23)
Length of Visible Light 12h 18m
Length of Day
11h 31m
Waxing Gibbous, 95% of the Moon is Illuminated
Feb 23
Waxing Gibbous
Feb 25
Full
Mar 4
Last Quarter
Mar 11
New
Mar 19
First Quarter

Hourly Weather History & Observations

Time (EST) Temp. Heat Index Dew Point Humidity Pressure Visibility Wind Dir Wind Speed Gust Speed Precip Events Conditions
12:53 AM 75.0 °F - 71.1 °F 87% 30.02 in 10.0 mi SE 11.5 mph - N/A   Partly Cloudy
1:53 AM 75.0 °F - 71.1 °F 87% 30.00 in 10.0 mi SE 10.4 mph - N/A   Clear
2:53 AM 75.9 °F - 71.1 °F 85% 29.98 in 10.0 mi SE 10.4 mph - N/A   Scattered Clouds
3:53 AM 75.9 °F - 71.1 °F 85% 29.97 in 10.0 mi SE 10.4 mph - N/A   Scattered Clouds
4:53 AM 75.0 °F - 71.1 °F 87% 29.96 in 10.0 mi SE 10.4 mph - N/A   Clear
5:54 AM 75.2 °F - 71.6 °F 89% 29.97 in 10.0 mi SE 10.4 mph - N/A   Scattered Clouds
6:53 AM 75.9 °F - 72.0 °F 87% 29.98 in 10.0 mi SSE 8.1 mph - N/A   Scattered Clouds
7:53 AM 77.0 °F - 72.0 °F 84% 29.99 in 10.0 mi SE 11.5 mph - N/A   Scattered Clouds
8:53 AM 78.1 °F - 73.0 °F 84% 30.00 in 10.0 mi SE 9.2 mph - N/A   Scattered Clouds
9:53 AM 80.1 °F 83.8 °F 72.0 °F 76% 30.01 in 10.0 mi SSE 10.4 mph - N/A   Mostly Cloudy
10:53 AM 82.0 °F 86.7 °F 72.0 °F 71% 30.02 in 10.0 mi SSE 11.5 mph - N/A   Mostly Cloudy
11:53 AM 82.0 °F 87.4 °F 73.0 °F 74% 30.01 in 10.0 mi South 11.5 mph - N/A   Scattered Clouds
12:53 PM 81.0 °F 85.2 °F 72.0 °F 74% 29.99 in 10.0 mi South 12.7 mph - N/A   Scattered Clouds
1:53 PM 82.0 °F 87.4 °F 73.0 °F 74% 29.97 in 10.0 mi South 10.4 mph - N/A   Scattered Clouds
2:53 PM 81.0 °F 85.2 °F 72.0 °F 74% 29.95 in 10.0 mi South 10.4 mph - N/A   Scattered Clouds
3:53 PM 80.1 °F 83.8 °F 72.0 °F 76% 29.94 in 10.0 mi South 6.9 mph - N/A   Scattered Clouds
4:53 PM 80.1 °F 83.6 °F 71.1 °F 74% 29.93 in 10.0 mi SSE 3.5 mph - N/A   Partly Cloudy
5:53 PM 79.0 °F - 71.1 °F 77% 29.94 in 10.0 mi Calm Calm - N/A   Mostly Cloudy
6:53 PM 75.0 °F - 71.1 °F 87% 29.94 in 10.0 mi ESE 3.5 mph - N/A   Mostly Cloudy
7:53 PM 75.0 °F - 71.1 °F 87% 29.96 in 10.0 mi ESE 4.6 mph - N/A   Scattered Clouds
8:53 PM 73.9 °F - 71.1 °F 91% 29.98 in 10.0 mi ESE 5.8 mph - N/A   Scattered Clouds
9:53 PM 75.0 °F - 72.0 °F 90% 29.99 in 10.0 mi SE 4.6 mph - N/A   Scattered Clouds
10:53 PM 75.0 °F - 73.0 °F 94% 29.99 in 10.0 mi SE 4.6 mph - N/A   Clear
11:53 PM 73.9 °F - 72.0 °F 93% 29.99 in 10.0 mi SE 3.5 mph - N/A   Clear